02:57
Airports
History
Links
Donate
Help keep this website running!
PayPal
Bitcoin
This page is community maintained. The information is intended for PC simulator navigation or reference.
Always use approved charts for navigation.
06S
Acme Field
Acme Field (06S)
Deming, Washington, United States (98244)
4
Lat/Lng:48° 42' 34.41" N / 122° 10' 39.57" W
48.709558 / -122.177657
Elevation:301'ft / 92mMSL
ID / ICAO:06S
Runways:1
Longest:36-18
Grass 435m / 1,426ft
Nearby Weather02:53 GMT 2018-01-20
Nearby weather at KBLI, Bellingham Intl located 17.4 nautical miles from 06S
Altimeter: 29.81
Visibility: 10.0 statute miles
Wind: 16 knots (from 150°)
Temp: 8°c / 46°f
Humidity: 70.6%

METAR: KBLI 200253Z 15016G28KT 10SM BKN024 OVC029 08/03 A2981 RMK AO2 PK WND 15033/0234 SLP104 60000 T00780033 53004

(Powered by phpweather)
Nearby VORs <50NM
Nearby NDBs
Runway 36 / 18
Dimensions:434.5 x 22.9m 1426' x 75'ft
Surface:Grass
Runway 36 [A]Runway 18 [B]
Heading:020°TH 200°TH
Lat:
Lng:
48° 42' 27.95"N
122° 10' 43.32"W
48° 42' 40.86"N
122° 10' 35.81"W
User Notes and Comments
48° 42' 34.41" N / 122° 10' 39.57" W
Distance To
Airport ID:
Nearby Airports
(R) Acme Field 0.0 NM
WA12 W 270°
(R) Floathaven Airstrip 8.1 NM
WA90 W 281°
(R) Riverside 9.5 NM
4WA8 NNW 335°
(R) Kendall Airstrip 14.5 NM
WN08 N 11°
4 Israels Farm 14.5 NM
WA56 SSE 164°
(C) Bellingham Intl 17.4 NM
KBLI ( WX ) WNW 289°
(R) Bayview Farms 18.5 NM
WN51 SW 225°
VFR Chart
Flight Planning at SkyVector.com